WX2DX-2 Weather Reports


time (UTC)temp
F
wind
direction
speed
knots
gust
knots
rain 1hr
in
rain 24hr
in
rain mn
in
humidity
%
barometer
mb
20260503184524 54 319 4.3 14.8 0.00 0.00 0.00 43 1013.7
20260503183035 54 292 4.3 16.5 0.00 0.00 0.00 45 1014.1
20260503181522 55 265 6.1 18.2 0.00 0.00 0.00 45 1014.1
20260503180021 55 329 6.1 15.6 0.00 0.00 0.00 45 1014.1
20260503174520 55 226 6.1 13.9 0.00 0.00 0.00 44 1014.3
20260503173020 54 236 6.1 15.6 0.00 0.00 0.00 50 1014.3
20260503171517 55 299 4.3 12.2 0.00 0.00 0.00 44 1014.5
20260503081513 36 214 0.9 3.5 0.00 0.00 0.00 72 1014.5
20260503071510 35 274 0.9 7.0 0.00 0.00 0.00 72 1014.2
20260503060103 37 338 0.9 7.0 0.00 0.00 0.00 69 1014.2
20260503054603 37 332 0.9 7.8 0.00 0.02 0.00 68 1014.2
20260503053054 38 313 0.0 7.8 0.00 0.02 0.00 68 1014.3
20260503051551 38 281 0.9 3.5 0.00 0.02 0.00 67 1014.4
20260503050047 39 266 2.6 7.0 0.00 0.02 0.00 66 1014.4
20260503044550 39 315 2.6 8.7 0.00 0.03 0.00 65 1014.4
20260503043044 39 355 0.9 10.4 0.00 0.03 0.00 65 1014.3
20260503041547 40 251 4.3 7.8 0.00 0.03 0.00 64 1014.4
20260503040041 40 98 0.9 4.3 0.00 0.03 0.00 64 1014.3
20260503034545 40 218 1.7 7.0 0.00 0.14 0.03 65 1014.4
20260503033042 40 244 0.9 4.3 0.00 0.14 0.03 67 1014.5
20260503031547 40 237 2.6 6.1 0.00 0.14 0.03 66 1014.6
20260503030034 40 276 0.9 7.0 0.00 0.14 0.03 69 1014.7
20260503024534 41 273 3.5 8.7 0.00 0.15 0.03 68 1014.7
20260503023034 41 229 1.7 6.1 0.00 0.15 0.03 68 1014.8
20260503021533 41 238 3.5 7.0 0.00 0.15 0.03 69 1014.8
20260503020032 41 259 1.7 7.0 0.00 0.15 0.03 68 1014.7
20260503014539 41 225 1.7 7.8 0.00 0.15 0.03 69 1014.6
20260503013029 41 167 3.5 9.6 0.00 0.15 0.03 73 1014.5
20260503011530 40 282 1.7 6.1 0.00 0.15 0.03 78 1014.5
20260503010028 40 294 0.9 4.3 0.00 0.15 0.03 79 1014.4
20260503004527 41 259 0.9 4.3 0.00 0.17 0.03 77 1014.1
20260503003027 41 287 0.9 3.5 0.00 0.17 0.03 73 1013.9
20260503001526 42 272 1.7 7.8 0.00 0.17 0.03 76 1014.0
20260503000025 42 259 1.7 3.5 0.00 0.17 0.03 76 1014.0
20260502234525 42 263 2.6 7.8 0.00 0.17 0.03 75 1013.8
20260502233024 43 256 1.7 7.0 0.00 0.17 0.03 74 1013.7
20260502231524 43 250 0.9 4.3 0.00 0.17 0.03 74 1013.6
20260502230024 43 327 1.7 7.8 0.00 0.17 0.03 71 1013.6
20260502224523 44 301 1.7 6.1 0.00 0.17 0.03 72 1013.5
20260502223024 44 254 0.9 3.5 0.00 0.17 0.03 72 1013.4
20260502221522 45 318 4.3 8.7 0.00 0.17 0.03 69 1013.4
20260502220042 45 239 3.5 8.7 0.00 0.17 0.03 70 1013.4
20260502214536 45 305 0.9 7.0 0.00 0.18 0.03 72 1013.3
20260502213048 45 360 1.7 6.1 0.00 0.18 0.03 76 1013.3
20260502211544 43 279 1.7 7.0 0.00 0.18 0.03 76 1013.2
20260502210035 44 321 2.6 7.0 0.00 0.18 0.03 75 1013.2
20260502204539 44 298 0.9 7.8 0.00 0.22 0.03 76 1013.2
20260502203034 44 286 1.7 4.3 0.00 0.22 0.03 74 1013.3
20260502201534 45 318 3.5 7.8 0.00 0.22 0.03 72 1013.3
20260502200032 45 340 1.7 7.0 0.00 0.22 0.03 73 1013.3
20260502194536 45 325 1.7 5.2 0.00 0.28 0.03 70 1013.4
20260502193032 46 323 3.5 7.8 0.00 0.28 0.03 68 1013.5
20260502191536 47 296 1.7 8.7 0.00 0.28 0.03 63 1013.6
20260502190030 48 30 0.9 4.3 0.00 0.28 0.03 60 1013.6